Location: Mahannah Oil Field
(37.4664°N, 96.6003°W)
Time: 15:40:33
(UTC+00:00)

X-37B - Pass Details

Date: 25 November 2020
Orbit: 384 x 390 km, 45.0° (Epoch: 02 January)

Event Time Altitude Azimuth Distance (km) Brightness Sun altitude
Rises 01:28:52 0° 236° (SW) 2,255 5.4 -27.1°
Reaches altitude 10° 01:30:56 10° 234° (SW) 1,405 4.1 -27.5°
Enters shadow 01:31:32 15° 232° (SW) 1,163 3.6 -27.7°
